Location: Byhalia Creek
(34.8270°N, 89.8040°W)
Time: 20:58:20
(UTC+00:00)

CZ-2D R/B - Pass Details

Date: 22 April 2026
Orbit: 789 x 841 km, 98.9° (Epoch: 21 May)

Event Time Altitude Azimuth Distance (km) Brightness Sun altitude
Rises 09:01:49 0° 8° (N) 3,314 6.0 -25.8°
Reaches altitude 10° 09:04:09 10° 5° (N) 2,387 5.1 -25.5°
Maximum altitude 09:09:21 61° 286° (WNW) 917 2.1 -24.6°
Enters shadow 09:09:35 60° 273° (W) 923 2.1 -24.6°
